Location: Chuathbaluk
(61.5726°N, 159.2454°W)
Time: 13:52:59
(UTC+00:00)

DELFI C3 - Pass Details

Date: 18 January 2021
Orbit: 531 x 550 km, 97.4° (Epoch: 04 March)

Event Time Altitude Azimuth Distance (km) Brightness Sun altitude
Rises 17:44:13 0° 24° (NNE) 2,744 ? -11.4°
Reaches altitude 10° 17:47:17 10° 50° (NE) 1,843 ? -11.0°
Maximum altitude 17:49:27 14° 83° (E) 1,588 ? -10.8°
Drops below altitude 10° 17:51:37 10° 117° (ESE) 1,835 ? -10.6°
Sets 17:54:39 0° 142° (SE) 2,721 ? -10.2°
